period_start,C,m1,H,J0,J1,J2,J3,J4,J5,JA,JB,JC,JD,JJ,JK,JN,#
2016-09-29 00:02:30,0.00,1.07,0.00,22.59,28.38,31.81,14.74,47.72,1021.51,2029.35,3071.85,2847.59,3196.00,600.00,599.69,48.09,0000 0000 0000 0000 000000
2016-09-29 00:07:31,0.01,1.07,0.00,22.61,28.39,31.81,14.71,47.86,1021.52,2029.26,3071.32,2847.17,3195.97,599.83,599.68,48.14,0000 0000 0000 0000 000000
2016-09-29 00:12:33,0.01,1.07,0.00,22.63,28.40,31.79,14.70,47.77,1021.50,2029.29,3071.05,2847.08,3195.95,599.93,599.54,48.19,0000 0000 0000 0000 000000
2016-09-29 00:17:34,0.01,1.07,0.00,22.67,28.40,31.77,14.71,47.79,1021.50,2029.36,3071.02,2847.02,3195.75,600.15,599.78,48.24,0000 0000 0000 0000 000000
2016-09-29 00:22:35,-0.01,1.07,0.00,22.67,28.40,31.79,14.68,47.87,1021.51,2029.23,3071.00,2847.00,3195.14,600.10,599.63,48.29,0000 0000 0000 0000 000000
2016-09-29 00:27:37,-0.01,1.07,0.00,22.68,28.40,31.80,14.63,47.83,1021.52,2029.12,3071.00,2847.00,3195.01,600.01,599.56,48.34,0000 0000 0000 0000 000000
2016-09-29 00:32:38,0.01,1.07,0.00,22.71,28.42,31.82,14.72,47.82,1021.52,2029.15,3071.00,2846.98,3195.00,600.06,599.57,48.39,0000 0000 0000 0000 000000
2016-09-29 00:37:39,-0.00,1.07,0.00,22.63,28.42,31.80,14.69,47.88,1021.52,2029.08,3070.97,2846.94,3194.99,599.74,599.42,48.44,0000 0000 0000 0000 000000
2016-09-29 00:42:40,0.02,1.07,0.00,22.70,28.42,31.79,14.74,47.82,1021.62,2029.09,3070.74,2846.67,3194.95,600.11,599.69,48.49,0000 0000 0000 0000 000000
2016-09-29 00:47:41,0.02,1.08,0.00,22.71,28.42,31.80,14.72,47.78,1021.76,2029.03,3070.14,2846.14,3194.59,599.91,599.50,48.54,0000 0000 0000 0000 000000
2016-09-29 00:52:42,0.01,1.08,0.00,22.74,28.44,31.83,14.69,47.81,1021.63,2029.06,3070.03,2846.03,3194.24,599.96,599.47,48.59,0000 0000 0000 0000 000000
2016-09-29 00:57:44,-0.00,1.08,0.00,22.74,28.45,31.84,14.67,47.88,1021.61,2029.02,3070.00,2846.00,3194.02,599.91,599.34,48.64,0000 0000 0000 0000 000000
2016-09-29 01:02:45,0.00,1.08,0.00,22.74,28.45,31.84,14.69,47.77,1021.80,2029.02,3070.00,2846.00,3194.00,599.89,599.52,48.69,0000 0000 0000 0000 000000
2016-09-29 01:07:46,0.00,1.08,0.00,22.72,28.45,31.85,14.68,47.86,1021.95,2029.00,3069.97,2845.99,3193.99,599.93,599.63,48.74,0000 0000 0000 0000 000000
2016-09-29 01:12:48,0.01,1.08,0.00,22.69,28.46,31.87,14.71,47.86,1021.98,2029.00,3069.72,2845.94,3193.85,600.07,599.87,48.79,0000 0000 0000 0000 000000
2016-09-29 01:17:49,0.01,1.08,0.00,22.72,28.47,31.85,14.78,47.74,1021.99,2029.00,3069.51,2845.89,3193.72,600.04,599.79,48.84,0000 0000 0000 0000 000000
2016-09-29 01:22:50,0.02,1.08,0.00,22.79,28.47,31.82,14.65,47.69,1021.99,2029.00,3069.06,2845.57,3193.30,599.88,599.54,48.89,0000 0000 0000 0000 000000
2016-09-29 01:27:52,0.00,1.08,0.00,22.81,28.47,31.85,14.63,47.81,1021.99,2029.00,3069.01,2845.23,3193.05,599.88,599.53,48.95,0000 0000 0000 0000 000000
2016-09-29 01:32:53,0.00,1.08,0.00,22.77,28.49,31.86,14.68,47.82,1021.99,2029.00,3069.00,2845.07,3193.01,599.96,599.64,49.00,0000 0000 0000 0000 000000
2016-09-29 01:37:54,0.00,1.08,0.00,22.80,28.50,31.90,14.77,47.84,1021.99,2029.00,3069.00,2845.02,3193.00,600.14,599.72,49.05,0000 0000 0000 0000 000000
2016-09-29 01:42:54,0.00,1.08,0.00,22.79,28.50,31.90,14.61,47.83,1021.99,2029.00,3068.97,2845.00,3193.00,599.76,599.40,49.10,0000 0000 0000 0000 000000
2016-09-29 01:47:56,0.00,1.08,0.00,22.78,28.51,31.91,14.73,47.80,1022.00,2029.00,3068.82,2845.00,3192.99,600.21,599.86,49.15,0000 0000 0000 0000 000000
2016-09-29 01:52:57,0.01,1.08,0.00,22.82,28.52,31.91,14.63,47.71,1022.01,2028.98,3068.24,2845.00,3192.88,599.79,599.36,49.20,0000 0000 0000 0000 000000
2016-09-29 01:57:59,0.00,1.08,0.00,22.89,28.52,31.90,14.70,47.81,1022.06,2028.99,3068.02,2844.98,3192.60,599.94,599.45,49.25,0000 0000 0000 0000 000000
2016-09-29 02:03:00,0.01,1.08,0.00,22.86,28.54,31.92,14.64,47.88,1022.11,2028.98,3068.01,2844.94,3192.17,599.69,599.20,49.30,0000 0000 0000 0000 000000
2016-09-29 02:08:01,0.01,1.08,0.00,22.87,28.55,31.92,14.75,47.88,1022.14,2028.97,3068.00,2844.79,3192.03,600.12,599.58,49.35,0000 0000 0000 0000 000000
2016-09-29 02:13:02,0.02,1.08,0.00,23.02,28.55,31.94,14.70,47.83,1022.21,2028.95,3067.82,2844.12,3192.00,600.11,599.37,49.40,0000 0000 0000 0000 000000
2016-09-29 02:18:03,0.01,1.08,0.00,23.44,28.57,31.75,14.65,47.68,1022.28,2028.96,3067.32,2844.01,3192.00,600.29,598.72,49.45,0000 0000 0000 0000 000000
2016-09-29 02:23:04,-0.00,1.08,0.00,23.63,28.59,31.71,14.55,47.54,1022.27,2028.90,3067.02,2844.00,3191.88,599.88,597.88,49.50,0000 0000 0000 0000 000000
2016-09-29 02:28:05,0.01,1.08,0.00,23.69,28.61,31.74,14.55,47.58,1022.15,2028.89,3067.00,2844.00,3191.46,599.79,597.74,49.55,0000 0000 0000 0000 000000
2016-09-29 02:33:07,-0.02,1.08,0.00,23.72,28.63,31.75,14.61,47.69,1022.14,2028.76,3067.00,2844.00,3191.12,600.15,598.02,49.60,0000 0000 0000 0000 000000
2016-09-29 02:38:08,-0.02,1.08,0.00,23.75,28.65,31.79,14.63,47.65,1022.23,2028.46,3066.92,2843.94,3191.01,600.12,597.87,49.65,0000 0000 0000 0000 000000
2016-09-29 02:43:10,0.00,1.08,0.00,23.83,28.67,31.79,14.61,47.70,1022.18,2028.15,3066.32,2843.57,3190.99,599.84,597.46,49.70,0000 0000 0000 0000 000000
2016-09-29 02:48:11,0.01,1.08,0.00,23.82,28.70,31.83,14.67,47.63,1022.31,2028.05,3066.01,2843.08,3190.84,600.23,597.86,49.75,0000 0000 0000 0000 000000
2016-09-29 02:53:12,0.01,1.08,0.00,23.82,28.71,31.81,14.57,47.67,1022.30,2028.04,3066.00,2843.01,3190.22,599.68,597.47,49.80,0000 0000 0000 0000 000000
2016-09-29 02:58:14,0.01,1.08,0.00,23.77,28.72,31.80,14.66,47.68,1022.39,2028.04,3065.93,2843.00,3190.07,599.99,597.80,49.85,0000 0000 0000 0000 000000
2016-09-29 03:03:15,0.01,1.08,0.00,23.70,28.75,31.87,14.64,47.73,1022.33,2028.01,3065.26,2842.99,3190.00,600.01,598.00,49.90,0000 0000 0000 0000 000000
2016-09-29 03:08:16,0.00,1.08,0.00,23.59,28.75,32.14,14.60,47.71,1022.25,2028.00,3065.01,2842.97,3189.99,599.98,598.12,49.96,0000 0000 0000 0000 000000
2016-09-29 03:13:18,0.00,1.08,0.00,23.53,28.75,32.14,14.56,47.62,1022.20,2028.00,3065.00,2842.94,3189.98,599.83,598.08,50.01,0000 0000 0000 0000 000000
2016-09-29 03:18:19,0.00,1.08,0.00,23.48,28.75,32.03,14.62,47.72,1022.36,2028.00,3064.98,2842.88,3189.95,599.94,598.25,50.06,0000 0000 0000 0000 000000
2016-09-29 03:23:20,0.01,1.09,0.00,23.38,28.74,32.05,14.63,47.83,1022.43,2028.00,3064.95,2842.69,3189.89,599.82,598.43,50.11,0000 0000 0000 0000 000000
2016-09-29 03:28:22,0.02,1.09,0.00,23.27,28.73,32.02,14.70,47.92,1022.42,2028.00,3064.44,2842.45,3189.77,600.34,599.12,50.16,0000 0000 0000 0000 000000
2016-09-29 03:33:23,0.01,1.09,0.00,23.48,28.73,31.94,14.62,47.82,1022.42,2028.00,3064.05,2842.16,3189.40,599.99,598.46,50.21,0000 0000 0000 0000 000000
2016-09-29 03:38:24,0.00,1.09,0.00,23.75,28.74,31.80,14.61,47.83,1022.37,2028.01,3064.00,2842.05,3189.07,599.86,597.87,50.26,0000 0000 0000 0000 000000
2016-09-29 03:43:25,0.00,1.09,0.00,23.88,28.75,31.75,14.53,47.77,1022.47,2028.00,3064.00,2842.00,3189.00,600.02,597.54,50.31,0000 0000 0000 0000 000000
2016-09-29 03:48:27,0.00,1.09,0.00,23.94,28.76,31.78,14.51,47.68,1022.48,2028.00,3064.00,2842.00,3188.99,599.63,597.36,50.36,0000 0000 0000 0000 000000
2016-09-29 03:53:28,0.00,1.09,0.00,24.02,28.77,31.84,14.56,47.66,1022.48,2028.00,3063.99,2841.99,3188.94,600.38,597.75,50.41,0000 0000 0000 0000 000000
2016-09-29 03:58:30,0.01,1.09,0.00,24.10,28.78,31.86,14.58,47.68,1022.48,2028.00,3063.96,2841.92,3188.30,600.20,597.44,50.46,0000 0000 0000 0000 000000
2016-09-29 04:03:31,0.02,1.09,0.00,24.11,28.80,31.89,14.60,47.65,1022.44,2028.00,3063.87,2841.53,3188.02,600.09,597.33,50.51,0000 0000 0000 0000 000000
2016-09-29 04:08:32,0.02,1.09,0.00,24.10,28.81,31.88,14.58,47.67,1022.43,2028.00,3063.26,2841.10,3188.00,600.01,597.19,50.56,0000 0000 0000 0000 000000
2016-09-29 04:13:33,0.00,1.09,0.00,24.08,28.82,31.94,14.57,47.69,1022.47,2028.00,3063.10,2841.05,3187.99,599.79,597.07,50.61,0000 0000 0000 0000 000000
2016-09-29 04:18:34,0.00,1.09,0.00,24.07,28.82,31.87,14.63,47.69,1022.48,2027.98,3063.00,2841.00,3187.98,600.16,597.34,50.66,0000 0000 0000 0000 000000
2016-09-29 04:23:36,0.00,1.09,0.00,24.03,28.82,31.85,14.66,47.72,1022.48,2027.99,3063.00,2841.00,3187.83,600.01,597.35,50.71,0000 0000 0000 0000 000000
2016-09-29 04:28:37,0.00,1.09,0.00,24.00,28.82,31.83,14.62,47.68,1022.48,2027.96,3062.98,2841.00,3187.62,599.97,597.50,50.76,0000 0000 0000 0000 000000
2016-09-29 04:33:38,0.01,1.09,0.00,24.00,28.82,31.83,14.51,47.72,1022.48,2027.92,3062.73,2841.00,3187.13,600.03,597.42,50.81,0000 0000 0000 0000 000000
2016-09-29 04:38:39,0.01,1.09,0.00,24.04,28.82,31.85,14.51,47.78,1022.48,2027.94,3062.37,2840.97,3187.02,599.75,597.14,50.87,0000 0000 0000 0000 000000
2016-09-29 04:43:40,0.00,1.09,0.00,24.03,28.82,31.86,14.59,47.69,1022.48,2027.97,3062.22,2840.97,3187.01,600.05,597.57,50.92,0000 0000 0000 0000 000000
2016-09-29 04:48:42,0.00,1.09,0.00,24.02,28.82,31.84,14.53,47.77,1022.48,2027.97,3062.26,2840.98,3187.02,599.65,597.08,50.97,0000 0000 0000 0000 000000
2016-09-29 04:53:43,0.00,1.09,0.00,24.06,28.82,31.79,14.56,47.74,1022.49,2027.97,3062.06,2840.95,3187.00,600.15,597.48,51.02,0000 0000 0000 0000 000000
2016-09-29 04:58:44,0.01,1.09,0.00,24.05,28.82,31.81,14.58,47.71,1022.48,2027.97,3062.02,2840.90,3187.00,599.92,597.38,51.07,0000 0000 0000 0000 000000
2016-09-29 05:03:46,0.00,1.09,0.00,24.05,28.82,31.81,14.59,47.84,1022.49,2027.94,3062.00,2840.65,3186.99,599.95,597.29,51.12,0000 0000 0000 0000 000000
2016-09-29 05:08:47,0.01,1.09,0.00,24.02,28.82,31.80,14.56,47.63,1022.51,2027.96,3062.00,2840.30,3186.97,599.81,597.34,51.17,0000 0000 0000 0000 000000
2016-09-29 05:13:47,-0.00,1.09,0.00,24.02,28.80,31.78,14.57,47.78,1022.53,2027.94,3062.00,2840.29,3186.98,600.06,597.50,51.22,0000 0000 0000 0000 000000
2016-09-29 05:18:48,-0.00,1.09,0.00,24.02,28.80,31.74,14.56,47.73,1022.56,2027.96,3062.00,2840.35,3186.97,599.98,597.40,51.27,0000 0000 0000 0000 000000
2016-09-29 05:23:50,0.01,1.09,0.00,24.00,28.80,31.77,14.57,47.68,1022.73,2027.94,3061.99,2840.14,3186.85,599.85,597.49,51.32,0000 0000 0000 0000 000000
2016-09-29 05:28:51,0.01,1.09,0.00,24.04,28.79,31.85,14.70,47.73,1022.86,2027.95,3061.98,2840.07,3186.51,600.21,597.84,51.37,0000 0000 0000 0000 000000
2016-09-29 05:33:53,0.00,1.09,0.00,24.06,28.77,31.73,14.62,47.73,1022.88,2027.95,3061.93,2840.04,3186.19,599.96,597.54,51.42,0000 0000 0000 0000 000000
2016-09-29 05:38:54,-0.00,1.10,0.00,24.07,28.77,31.72,14.53,47.73,1022.92,2027.94,3061.87,2840.00,3186.05,600.10,597.84,51.47,0000 0000 0000 0000 000000
2016-09-29 05:43:55,0.01,1.10,0.00,24.06,28.77,31.71,14.54,47.80,1022.95,2027.92,3061.27,2840.00,3186.00,599.76,597.65,51.52,0000 0000 0000 0000 000000
2016-09-29 05:48:56,0.01,1.10,0.00,24.06,28.76,31.76,14.63,47.81,1022.96,2027.91,3061.04,2839.99,3185.99,599.67,597.51,51.57,0000 0000 0000 0000 000000
2016-09-29 05:53:57,0.15,1.10,0.00,24.03,28.75,31.73,14.51,47.76,1022.96,2027.96,3058.35,2838.30,3184.30,599.74,597.46,51.62,0000 0000 0000 0000 000000
2016-09-29 05:58:58,0.01,1.10,0.00,23.96,28.75,31.72,14.59,47.75,1022.96,2027.98,3057.53,2838.00,3183.99,600.02,597.80,51.67,0000 0000 0000 0000 000000
2016-09-29 06:03:59,0.01,1.10,0.00,23.94,28.75,31.72,14.52,47.71,1022.96,2027.98,3057.05,2837.98,3183.86,599.96,597.85,51.73,0000 0000 0000 0000 000000
2016-09-29 06:09:01,0.02,1.11,0.00,23.86,28.72,31.73,14.57,47.77,1022.96,2027.96,3057.00,2837.71,3183.20,599.89,597.84,51.78,0000 0000 0000 0000 000000
2016-09-29 06:14:02,0.04,1.11,0.00,23.74,28.72,31.89,14.60,47.69,1022.96,2027.97,3056.33,2837.04,3182.52,599.78,598.06,51.83,0000 0000 0000 0000 000000
2016-09-29 06:19:04,0.04,1.11,0.00,23.64,28.70,31.88,14.53,47.75,1022.97,2027.98,3055.33,2836.45,3181.94,599.73,598.11,51.88,0000 0000 0000 0000 000000
2016-09-29 06:24:05,0.02,1.11,0.00,23.59,28.68,31.76,14.58,47.71,1022.98,2027.99,3054.73,2835.99,3181.12,600.22,598.76,51.93,0000 0000 0000 0000 000000
2016-09-29 06:29:06,0.04,1.11,0.00,23.51,28.66,31.73,14.70,47.70,1022.99,2027.99,3054.05,2835.43,3180.74,600.17,598.81,51.98,0000 0000 0000 0000 000000
2016-09-29 06:34:08,0.01,1.12,0.00,23.48,28.64,31.67,14.64,47.65,1022.98,2027.99,3053.98,2835.01,3180.07,600.20,598.98,52.03,0000 0000 0000 0000 000000
2016-09-29 06:39:09,0.01,1.12,0.00,23.47,28.62,31.66,14.67,47.75,1022.97,2027.99,3053.31,2834.99,3180.00,600.30,599.06,52.08,0000 0000 0000 0000 000000
2016-09-29 06:44:11,0.00,1.12,0.00,23.41,28.60,31.69,14.64,47.64,1022.98,2027.99,3053.03,2834.92,3179.93,599.90,598.90,52.13,0000 0000 0000 0000 000000
2016-09-29 06:49:12,0.03,1.12,0.00,23.51,28.60,31.73,14.72,47.73,1022.98,2028.00,3053.00,2834.45,3179.34,600.12,598.86,52.18,0000 0000 0000 0000 000000
2016-09-29 06:54:13,0.01,1.12,0.00,23.91,28.60,31.60,14.63,47.60,1022.98,2028.00,3053.00,2834.02,3179.01,600.20,598.14,52.23,0000 0000 0000 0000 000000
2016-09-29 06:59:14,0.00,1.12,0.00,24.02,28.60,31.57,14.64,47.51,1022.97,2028.00,3052.97,2834.00,3178.99,600.33,598.00,52.28,0000 0000 0000 0000 000000
2016-09-29 07:04:16,0.00,1.12,0.00,24.10,28.61,31.63,14.54,47.56,1022.97,2028.00,3052.79,2833.98,3178.92,600.07,597.47,52.33,0000 0000 0000 0000 000000
2016-09-29 07:09:17,0.01,1.12,0.00,24.16,28.62,31.67,14.54,47.63,1022.98,2028.00,3052.42,2833.95,3178.60,599.90,597.27,52.38,0000 0000 0000 0000 000000
2016-09-29 07:14:18,0.02,1.12,0.00,24.18,28.63,31.72,14.60,47.62,1022.98,2028.00,3052.06,2833.79,3178.13,600.37,597.74,52.43,0000 0000 0000 0000 000000
2016-09-29 07:19:19,0.01,1.12,0.00,24.19,28.65,31.71,14.56,47.62,1022.96,2027.99,3052.01,2833.28,3178.01,599.99,597.32,52.48,0000 0000 0000 0000 000000
2016-09-29 07:24:21,0.00,1.12,0.00,24.21,28.65,31.76,14.58,47.67,1022.97,2027.99,3052.00,2833.07,3178.00,599.92,597.35,52.53,0000 0000 0000 0000 000000
2016-09-29 07:29:22,0.00,1.12,0.00,24.21,28.67,31.79,14.51,47.75,1022.97,2027.99,3052.00,2833.03,3178.00,599.97,597.24,52.58,0000 0000 0000 0000 000000
2016-09-29 07:34:23,0.00,1.12,0.00,24.17,28.67,31.80,14.59,47.68,1022.97,2027.99,3052.00,2833.01,3177.99,600.09,597.38,52.63,0000 0000 0000 0000 000000
2016-09-29 07:39:24,0.00,1.12,0.00,24.16,28.67,31.81,14.61,47.67,1022.97,2027.98,3051.99,2833.01,3177.98,600.04,597.41,52.69,0000 0000 0000 0000 000000
2016-09-29 07:44:25,0.00,1.12,0.00,24.13,28.67,31.81,14.52,47.63,1022.98,2027.98,3051.98,2833.00,3177.95,600.00,597.45,52.74,0000 0000 0000 0000 000000
2016-09-29 07:49:26,0.00,1.12,0.00,24.10,28.67,31.82,14.58,47.62,1022.99,2027.99,3051.96,2833.00,3177.81,599.97,597.42,52.79,0000 0000 0000 0000 000000
2016-09-29 07:54:28,0.00,1.12,0.00,24.08,28.67,31.74,14.64,47.68,1022.99,2027.98,3051.95,2833.00,3177.75,599.97,597.52,52.84,0000 0000 0000 0000 000000
2016-09-29 07:59:29,0.00,1.12,0.00,24.08,28.67,31.70,14.55,47.67,1022.97,2027.98,3051.93,2832.99,3177.66,599.93,597.52,52.89,0000 0000 0000 0000 000000
2016-09-29 08:04:31,0.01,1.12,0.00,24.05,28.66,31.75,14.52,47.65,1022.99,2027.99,3051.76,2832.99,3177.25,599.79,597.57,52.94,0000 0000 0000 0000 000000
2016-09-29 08:09:32,0.00,1.12,0.00,24.04,28.65,31.77,14.60,47.66,1023.08,2027.96,3051.61,2832.99,3177.10,600.16,597.89,52.99,0000 0000 0000 0000 000000
2016-09-29 08:14:34,-0.00,1.12,0.00,24.01,28.65,31.72,14.71,47.57,1023.35,2027.97,3051.76,2832.99,3177.11,600.30,598.21,53.04,0000 0000 0000 0000 000000
2016-09-29 08:19:35,0.01,1.12,0.00,23.95,28.64,31.68,14.51,47.55,1023.30,2027.97,3051.43,2832.97,3177.07,599.74,597.79,53.09,0000 0000 0000 0000 000000
2016-09-29 08:24:36,0.00,1.12,0.00,23.92,28.62,31.66,14.65,47.58,1023.22,2027.97,3051.35,2832.97,3177.06,600.10,598.20,53.14,0000 0000 0000 0000 000000
2016-09-29 08:29:38,0.00,1.12,0.00,23.89,28.62,31.63,14.60,47.55,1023.27,2027.98,3051.27,2832.99,3177.05,599.81,598.02,53.19,0000 0000 0000 0000 000000
2016-09-29 08:34:39,0.00,1.12,0.00,23.83,28.60,31.65,14.51,47.46,1023.43,2027.98,3051.12,2832.97,3177.03,599.86,598.16,53.24,0000 0000 0000 0000 000000
2016-09-29 08:39:40,0.00,1.12,0.00,23.69,28.59,31.80,14.62,47.46,1023.45,2027.99,3051.15,2832.99,3177.05,599.87,598.53,53.29,0000 0000 0000 0000 000000
2016-09-29 08:44:41,-0.00,1.12,0.00,23.58,28.57,31.77,14.62,47.50,1023.45,2027.99,3051.13,2832.98,3177.08,599.76,598.70,53.34,0000 0000 0000 0000 000000
2016-09-29 08:49:43,-0.00,1.12,0.00,23.54,28.54,31.69,14.60,47.38,1023.44,2027.99,3051.19,2832.99,3177.19,599.79,598.74,53.39,0000 0000 0000 0000 000000
2016-09-29 08:54:44,-0.01,1.12,0.00,23.48,28.52,31.62,14.54,47.32,1023.40,2027.99,3051.49,2832.99,3177.55,599.63,598.66,53.44,0000 0000 0000 0000 000000
2016-09-29 08:59:45,-0.00,1.12,0.00,23.40,28.50,31.53,14.70,47.48,1023.34,2027.99,3051.80,2833.00,3177.85,599.91,599.10,53.49,0000 0000 0000 0000 000000
2016-09-29 09:04:46,-0.00,1.12,0.00,23.34,28.47,31.51,14.66,47.51,1023.02,2027.99,3051.91,2833.00,3177.96,599.96,599.11,53.54,0000 0000 0000 0000 000000
2016-09-29 09:09:47,0.00,1.12,0.00,23.29,28.46,31.46,14.69,47.56,1023.00,2027.99,3051.97,2833.02,3177.97,600.09,599.24,53.60,0000 0000 0000 0000 000000
2016-09-29 09:14:48,-0.00,1.12,0.00,23.25,28.44,31.68,14.58,47.63,1023.01,2028.03,3051.99,2833.23,3177.99,599.57,598.87,53.65,0000 0000 0000 0000 000000
2016-09-29 09:19:49,-0.00,1.12,0.00,23.23,28.42,31.71,14.65,47.48,1022.99,2028.02,3051.99,2833.39,3177.99,599.98,599.19,53.70,0000 0000 0000 0000 000000
2016-09-29 09:24:51,-0.00,1.12,0.00,23.20,28.42,31.72,14.66,47.53,1023.02,2028.04,3051.99,2833.61,3177.99,599.79,599.15,53.75,0000 0000 0000 0000 000000
2016-09-29 09:29:52,0.00,1.12,0.00,23.48,28.41,31.64,14.62,47.37,1023.10,2028.12,3051.99,2833.85,3178.02,599.73,598.60,53.80,0000 0000 0000 0000 000000
2016-09-29 09:34:53,0.00,1.12,0.00,23.63,28.42,31.50,14.59,47.41,1023.09,2028.19,3051.99,2833.94,3178.02,600.15,598.70,53.85,0000 0000 0000 0000 000000
2016-09-29 09:39:54,0.01,1.12,0.00,23.73,28.42,31.54,14.58,47.54,1023.18,2028.23,3051.99,2833.82,3178.01,600.15,598.56,53.90,0000 0000 0000 0000 000000
2016-09-29 09:44:55,0.01,1.12,0.00,23.69,28.43,31.56,14.52,47.51,1023.34,2028.38,3051.99,2833.92,3178.02,600.02,598.67,53.95,0000 0000 0000 0000 000000
2016-09-29 09:49:56,-0.01,1.12,0.00,23.60,28.45,31.54,14.55,47.52,1023.40,2028.32,3052.00,2833.91,3178.03,599.97,598.72,54.00,0000 0000 0000 0000 000000
2016-09-29 09:54:57,-0.01,1.12,0.00,23.63,28.45,31.56,14.63,47.43,1023.43,2028.15,3052.00,2833.84,3178.00,599.94,598.69,54.05,0000 0000 0000 0000 000000
2016-09-29 09:59:58,0.00,1.12,0.00,23.55,28.45,31.56,14.60,47.52,1023.38,2028.09,3052.00,2833.70,3178.00,600.06,598.90,54.10,0000 0000 0000 0000 000000
2016-09-29 10:05:00,0.00,1.12,0.00,23.48,28.47,31.56,14.64,47.48,1023.40,2028.06,3052.00,2833.54,3178.00,600.19,599.30,54.15,0000 0000 0000 0000 000000
2016-09-29 10:10:01,0.00,1.12,0.00,23.41,28.47,31.73,14.60,47.42,1023.43,2028.07,3052.00,2833.55,3178.00,599.81,599.11,54.20,0000 0000 0000 0000 000000
2016-09-29 10:15:02,0.00,1.12,0.00,23.30,28.46,31.89,14.63,47.49,1023.44,2028.14,3052.00,2833.74,3178.00,599.70,599.12,54.25,0000 0000 0000 0000 000000
2016-09-29 10:20:04,-0.00,1.12,0.00,23.27,28.45,31.85,14.65,47.57,1023.45,2028.06,3052.00,2833.56,3178.00,599.81,599.29,54.30,0000 0000 0000 0000 000000
2016-09-29 10:25:05,-0.00,1.12,0.00,23.23,28.44,31.75,14.68,47.47,1023.45,2028.08,3052.00,2833.74,3178.00,600.15,599.85,54.35,0000 0000 0000 0000 000000
2016-09-29 10:30:06,-0.00,1.12,0.00,23.10,28.42,31.70,14.59,47.51,1023.45,2028.17,3052.00,2833.89,3178.01,599.76,599.58,54.40,0000 0000 0000 0000 000000
2016-09-29 10:35:07,-0.00,1.12,0.00,23.05,28.42,31.64,14.67,47.46,1023.45,2028.13,3052.00,2833.91,3178.01,599.89,599.85,54.45,0000 0000 0000 0000 000000
2016-09-29 10:40:09,0.01,1.12,0.00,22.98,28.40,31.57,14.63,47.56,1023.45,2028.31,3052.00,2833.97,3178.03,599.79,599.79,54.50,0000 0000 0000 0000 000000
2016-09-29 10:45:10,0.00,1.12,0.00,22.86,28.39,31.58,14.68,47.59,1023.45,2028.34,3052.00,2833.98,3178.02,599.94,600.28,54.56,0000 0000 0000 0000 000000
2016-09-29 10:50:11,0.01,1.12,0.00,22.91,28.37,31.57,14.74,47.62,1023.45,2028.47,3052.01,2833.98,3178.08,600.11,600.44,54.61,0000 0000 0000 0000 000000
2016-09-29 10:55:13,0.01,1.12,0.00,22.87,28.37,31.59,14.72,47.50,1023.42,2028.66,3052.04,2833.99,3178.26,600.05,600.35,54.66,0000 0000 0000 0000 000000
2016-09-29 11:00:14,0.01,1.12,0.00,22.79,28.35,31.67,14.68,47.66,1023.41,2028.76,3052.11,2833.99,3178.57,599.69,600.06,54.71,0000 0000 0000 0000 000000
2016-09-29 11:05:16,-0.00,1.12,0.00,22.71,28.35,31.67,14.73,47.63,1023.32,2028.79,3052.04,2833.99,3178.55,600.10,600.68,54.76,0000 0000 0000 0000 000000
2016-09-29 11:10:17,0.00,1.12,0.00,22.70,28.32,31.67,14.74,47.66,1023.27,2028.89,3052.08,2833.99,3178.81,600.05,600.58,54.81,0000 0000 0000 0000 000000
2016-09-29 11:15:18,0.00,1.12,0.00,22.73,28.32,31.75,14.72,47.81,1023.21,2028.93,3052.27,2833.99,3178.91,600.26,600.77,54.86,0000 0000 0000 0000 000000
2016-09-29 11:20:19,0.00,1.12,0.00,22.74,28.32,31.75,14.73,47.92,1023.12,2028.96,3052.38,2834.00,3178.97,600.14,600.53,54.91,0000 0000 0000 0000 000000
2016-09-29 11:25:20,-0.00,1.12,0.00,22.64,28.30,31.75,14.76,48.11,1023.02,2028.98,3052.68,2834.01,3178.98,600.24,600.77,54.96,0000 0000 0000 0000 000000
2016-09-29 11:30:21,-0.00,1.12,0.00,22.56,28.30,31.73,14.75,48.02,1023.07,2028.97,3052.70,2834.02,3178.98,600.26,600.77,55.01,0000 0000 0000 0000 000000
2016-09-29 11:35:23,0.00,1.12,0.00,22.49,28.29,31.74,14.71,47.81,1023.00,2028.98,3052.80,2834.01,3178.98,599.60,600.41,55.06,0000 0000 0000 0000 000000
2016-09-29 11:40:24,0.00,1.12,0.00,22.51,28.27,31.64,14.68,47.80,1022.98,2028.98,3052.92,2834.05,3178.99,599.81,600.71,55.11,0000 0000 0000 0000 000000
2016-09-29 11:45:25,-0.00,1.12,0.00,22.60,28.27,31.73,14.66,47.68,1023.00,2028.99,3052.96,2834.14,3178.99,599.83,600.48,55.16,0000 0000 0000 0000 000000
2016-09-29 11:50:26,-0.00,1.12,0.00,22.52,28.27,31.67,14.80,47.91,1022.98,2028.99,3052.97,2834.27,3178.99,599.71,600.54,55.21,0000 0000 0000 0000 000000
2016-09-29 11:55:28,-0.01,1.12,0.00,22.44,28.25,31.71,14.70,47.83,1022.98,2028.99,3052.99,2834.64,3179.00,599.91,600.78,55.26,0000 0000 0000 0000 000000
2016-09-29 12:00:29,-0.01,1.12,0.00,22.42,28.25,31.66,14.82,47.74,1022.98,2028.99,3052.99,2834.86,3179.00,600.14,601.08,55.31,0000 0000 0000 0000 000000
2016-09-29 12:05:30,-0.00,1.12,0.00,22.44,28.24,31.66,14.68,47.61,1022.99,2028.99,3052.99,2834.92,3179.03,599.94,600.87,55.36,0000 0000 0000 0000 000000
2016-09-29 12:10:32,0.00,1.12,0.00,22.50,28.22,31.69,14.67,47.85,1022.97,2028.99,3052.99,2834.95,3179.06,599.61,600.51,55.41,0000 0000 0000 0000 000000
2016-09-29 12:15:33,-0.01,1.12,0.00,22.44,28.22,31.68,14.73,48.02,1022.97,2029.00,3053.01,2834.99,3179.46,600.26,601.16,55.46,0000 0000 0000 0000 000000
2016-09-29 12:20:34,-0.00,1.12,0.00,22.36,28.20,31.63,14.75,48.03,1022.96,2029.00,3053.02,2834.99,3179.77,599.71,600.72,55.52,0000 0000 0000 0000 000000
2016-09-29 12:25:35,0.00,1.12,0.00,22.31,28.20,31.57,14.82,48.08,1022.96,2029.03,3053.04,2834.99,3179.85,600.30,601.43,55.57,0000 0000 0000 0000 000000
2016-09-29 12:30:37,-0.00,1.12,0.00,22.31,28.19,31.54,14.74,47.91,1022.96,2029.02,3053.03,2834.99,3179.82,599.84,601.01,55.62,0000 0000 0000 0000 000000
2016-09-29 12:35:38,-0.00,1.12,0.00,22.32,28.17,31.51,14.82,47.92,1022.96,2029.03,3053.05,2834.99,3179.91,600.33,601.44,55.67,0000 0000 0000 0000 000000
2016-09-29 12:40:39,0.00,1.12,0.00,22.30,28.17,31.53,14.75,47.80,1022.96,2029.02,3053.06,2834.99,3179.96,599.70,600.87,55.72,0000 0000 0000 0000 000000
2016-09-29 12:45:40,0.00,1.12,0.00,22.28,28.17,31.53,14.70,47.91,1022.96,2029.06,3053.09,2835.00,3179.98,600.08,601.37,55.77,0000 0000 0000 0000 000000
2016-09-29 12:50:42,0.00,1.12,0.00,22.30,28.15,31.34,14.73,47.89,1022.95,2029.08,3053.07,2835.00,3179.96,599.81,600.94,55.82,0000 0000 0000 0000 000000
2016-09-29 12:55:43,0.00,1.12,0.00,22.21,28.15,31.40,14.78,47.93,1022.96,2029.18,3053.41,2835.02,3179.99,600.24,601.59,55.87,0000 0000 0000 0000 000000